FOX-1CLIFF (AO-95) (43770 NORAD) Tracking and Keplerian Element Data

This shows tracking and keplerian element data for the satellite.

Feedback or suggestion? Click here.




ElementValue
Catalog43770
NameFOX-1CLIFF (AO-95)
Epoch Orbit3412
Epoch Day201.16516603
Epoch Year2019
RAAN272.6312
Inclination97.7442
Eccentricity0.0013505
Argument of Perigee224.6738
Mean Anonmoly135.3396
Mean Motion14.94780203
Decay Rate1.12E-06
L11 43770U 18099N 19201.16516603 .00000112 00000-0 15602-4 0 9991
L22 43770 97.7442 272.6312 0013505 224.6738 135.3396 14.94780203 34123

Live tracking and technical data element details for FOX-1CLIFF (AO-95) (NORAD 43770). FOX-1CLIFF (AO-95) can be tracked NOW for your location showing map with azimuth and elevation plus other details from your city location.

Track the satellite on the map from your city or location and see movement details for azimuth, elevation, latitude, longitude, range, height, and movement on the map or in text.







IsCatalogInMostPopularTable: catalog: 43770, numindb: 72
Update: records affected: 1



GetName: 43770 FOX-1CLIFF (AO-95)

Hit Count: updated at: Sat, 20 Jul 2019 22:54:40 GMT